• In Lithuania
  • List of Countries
  • For 7 days
  • Water Temperature
  • Satellite Maps
  • Weather Map
  • Weather Widgets
  • user-avatar
    Login

    Hourly Weather Ondjiwa

    Today, 21 October, Sunday

    Time Temperature Precipitation Wind Pressure Humidity
    00:00 +28°C° 0 mm 2 mps 666 mmHg 28%
    01:00 +27°C° 0 mm 2 mps 666 mmHg 29%
    02:00 +26°C° 0 mm 2 mps 666 mmHg 31%
    03:00 +26°C° 0 mm 2 mps 666 mmHg 33%
    04:00 +25°C° 0 mm 2 mps 665 mmHg 34%
    05:00 +25°C° 0.1 mm 2 mps 666 mmHg 34%
    06:00 +26°C° 0.1 mm 3 mps 666 mmHg 34%
    07:00 +26°C° 0.1 mm 3 mps 667 mmHg 34%
    08:00 +29°C° 0 mm 3 mps 667 mmHg 29%
    09:00 +33°C° 0 mm 3 mps 668 mmHg 24%
    10:00 +35°C° 0 mm 3 mps 668 mmHg 18%
    11:00 +37°C° 0 mm 2 mps 668 mmHg 17%
    12:00 +39°C° 0 mm 2 mps 668 mmHg 16%
    13:00 +40°C° 0 mm 1 mps 668 mmHg 14%
    14:00 +40°C° 0 mm 1 mps 667 mmHg 15%
    15:00 +39°C° 0 mm 1 mps 666 mmHg 16%
    16:00 +38°C° 0 mm 2 mps 666 mmHg 17%
    17:00 +36°C° 0.1 mm 3 mps 666 mmHg 22%
    18:00 +34°C° 0.1 mm 4 mps 666 mmHg 27%
    19:00 +32°C° 0.1 mm 5 mps 666 mmHg 32%
    20:00 +30°C° 0.1 mm 6 mps 667 mmHg 37%
    21:00 +29°C° 0.1 mm 6 mps 667 mmHg 41%
    22:00 +28°C° 0.1 mm 6 mps 668 mmHg 46%
    23:00 +27°C° 0.6 mm 5 mps 667 mmHg 47%

    Tomorrow, 22 October, Monday

    Time Temperature Precipitation Wind Pressure Humidity
    00:00 +27°C° 0.6 mm 3 mps 667 mmHg 49%
    01:00 +26°C° 0.6 mm 1 mps 667 mmHg 51%
    02:00 +26°C° 0.2 mm 2 mps 667 mmHg 51%
    03:00 +26°C° 0.2 mm 2 mps 666 mmHg 52%
    04:00 +25°C° 0.2 mm 3 mps 666 mmHg 52%
    05:00 +26°C° 0.1 mm 3 mps 667 mmHg 52%
    06:00 +26°C° 0.1 mm 4 mps 668 mmHg 53%
    07:00 +26°C° 0.1 mm 4 mps 668 mmHg 53%
    08:00 +27°C° 0 mm 4 mps 668 mmHg 48%
    09:00 +29°C° 0 mm 4 mps 669 mmHg 43%
    10:00 +30°C° 0 mm 4 mps 669 mmHg 38%
    11:00 +32°C° 0 mm 4 mps 668 mmHg 36%
    12:00 +32°C° 0 mm 4 mps 668 mmHg 34%
    13:00 +33°C° 0 mm 3 mps 667 mmHg 33%
    14:00 +33°C° 0 mm 4 mps 667 mmHg 33%
    15:00 +33°C° 0 mm 4 mps 666 mmHg 33%
    16:00 +33°C° 0 mm 4 mps 666 mmHg 33%
    17:00 +32°C° 0.1 mm 4 mps 666 mmHg 36%
    18:00 +30°C° 0.1 mm 4 mps 666 mmHg 39%
    19:00 +29°C° 0.1 mm 4 mps 666 mmHg 43%
    20:00 +28°C° 0.1 mm 4 mps 667 mmHg 45%
    21:00 +27°C° 0.1 mm 4 mps 668 mmHg 47%
    22:00 +26°C° 0.1 mm 5 mps 668 mmHg 50%
    23:00 +26°C° 0.1 mm 4 mps 668 mmHg 52%

    Day after tomorrow, 23 October, Tuesday

    Time Temperature Precipitation Wind Pressure Humidity
    00:00 +25°C° 0.1 mm 3 mps 668 mmHg 55%
    01:00 +24°C° 0.1 mm 2 mps 668 mmHg 57%
    02:00 +24°C° 0.2 mm 2 mps 668 mmHg 59%
    03:00 +24°C° 0.2 mm 3 mps 668 mmHg 61%
    04:00 +24°C° 0.2 mm 3 mps 668 mmHg 63%
    05:00 +24°C° 0.1 mm 3 mps 668 mmHg 62%
    06:00 +23°C° 0.1 mm 4 mps 669 mmHg 62%
    07:00 +23°C° 0.1 mm 4 mps 669 mmHg 61%
    08:00 +26°C° 0 mm 4 mps 670 mmHg 54%
    09:00 +28°C° 0 mm 4 mps 670 mmHg 46%
    10:00 +30°C° 0 mm 4 mps 670 mmHg 38%
    11:00 +32°C° 0 mm 4 mps 669 mmHg 36%
    12:00 +33°C° 0 mm 4 mps 669 mmHg 33%
    13:00 +34°C° 0 mm 4 mps 668 mmHg 31%
    14:00 +34°C° 0 mm 3 mps 668 mmHg 30%
    15:00 +34°C° 0 mm 3 mps 667 mmHg 30%
    16:00 +34°C° 0 mm 3 mps 667 mmHg 29%
    17:00 +33°C° 0 mm 4 mps 667 mmHg 32%
    18:00 +32°C° 0 mm 5 mps 667 mmHg 36%
    19:00 +29°C° 0 mm 6 mps 667 mmHg 39%
    20:00 +28°C° 0.2 mm 5 mps 668 mmHg 43%
    21:00 +27°C° 0.2 mm 5 mps 668 mmHg 47%
    22:00 +26°C° 0.2 mm 5 mps 668 mmHg 51%
    23:00 +25°C° 0.5 mm 4 mps 668 mmHg 55%

    24 October, Wednesday

    Time Temperature Precipitation Wind Pressure Humidity
    00:00 +25°C° 0.5 mm 3 mps 668 mmHg 58%
    01:00 +24°C° 0.5 mm 3 mps 668 mmHg 62%
    02:00 +24°C° 1.2 mm 3 mps 668 mmHg 64%
    03:00 +22°C° 1.2 mm 3 mps 668 mmHg 67%
    04:00 +22°C° 1.2 mm 3 mps 668 mmHg 69%
    05:00 +22°C° 0.5 mm 3 mps 668 mmHg 69%
    06:00 +22°C° 0.5 mm 3 mps 668 mmHg 68%
    07:00 +22°C° 0.5 mm 3 mps 669 mmHg 68%
    08:00 +24°C° 0 mm 3 mps 669 mmHg 64%
    09:00 +25°C° 0 mm 3 mps 669 mmHg 59%
    10:00 +26°C° 0 mm 3 mps 669 mmHg 55%
    11:00 +27°C° 0.1 mm 2 mps 669 mmHg 52%
    12:00 +28°C° 0.1 mm 2 mps 668 mmHg 49%
    13:00 +28°C° 0.1 mm 2 mps 667 mmHg 46%
    14:00 +28°C° 0.5 mm 3 mps 667 mmHg 46%
    15:00 +28°C° 0.5 mm 4 mps 667 mmHg 47%
    16:00 +28°C° 0.5 mm 4 mps 666 mmHg 47%
    17:00 +27°C° 0.1 mm 4 mps 667 mmHg 50%
    18:00 +26°C° 0.1 mm 4 mps 667 mmHg 53%
    19:00 +25°C° 0.1 mm 3 mps 667 mmHg 56%
    20:00 +25°C° 0.1 mm 4 mps 668 mmHg 56%
    21:00 +23°C° 0.1 mm 4 mps 668 mmHg 57%
    22:00 +22°C° 0.1 mm 4 mps 668 mmHg 58%
    23:00 +22°C° 0.2 mm 5 mps 668 mmHg 61%

    25 October, Thursday

    Time Temperature Precipitation Wind Pressure Humidity
    00:00 +22°C° 0.2 mm 5 mps 668 mmHg 64%
    01:00 +21°C° 0.2 mm 5 mps 668 mmHg 67%
    02:00 +21°C° 0.1 mm 4 mps 667 mmHg 69%
    03:00 +20°C° 0.1 mm 3 mps 667 mmHg 72%
    04:00 +20°C° 0.1 mm 2 mps 667 mmHg 74%
    05:00 +20°C° 0 mm 3 mps 668 mmHg 72%
    06:00 +21°C° 0 mm 3 mps 668 mmHg 69%
    07:00 +21°C° 0 mm 4 mps 669 mmHg 67%
    08:00 +23°C° 0 mm 4 mps 669 mmHg 59%
    09:00 +26°C° 0 mm 4 mps 669 mmHg 51%
    10:00 +29°C° 0 mm 4 mps 669 mmHg 44%
    11:00 +29°C° 0 mm 4 mps 669 mmHg 42%
    12:00 +30°C° 0 mm 4 mps 668 mmHg 39%
    13:00 +30°C° 0 mm 4 mps 668 mmHg 37%
    14:00 +30°C° 0 mm 4 mps 667 mmHg 37%
    15:00 +30°C° 0 mm 4 mps 667 mmHg 37%
    16:00 +30°C° 0 mm 4 mps 667 mmHg 37%
    17:00 +29°C° 0 mm 3 mps 667 mmHg 40%
    18:00 +28°C° 0 mm 3 mps 668 mmHg 43%
    19:00 +27°C° 0 mm 3 mps 668 mmHg 45%
    20:00 +27°C° 0 mm 3 mps 668 mmHg 47%
    21:00 +26°C° 0 mm 4 mps 669 mmHg 49%
    22:00 +25°C° 0 mm 4 mps 669 mmHg 51%
    23:00 +25°C° 0 mm 3 mps 669 mmHg 53%

    26 October, Friday

    Time Temperature Precipitation Wind Pressure Humidity
    00:00 +24°C° 0 mm 2 mps 668 mmHg 55%
    01:00 +24°C° 0 mm 2 mps 668 mmHg 57%
    02:00 +24°C° 0 mm 1 mps 668 mmHg 58%
    03:00 +24°C° 0 mm 1 mps 668 mmHg 60%
    04:00 +23°C° 0 mm 1 mps 668 mmHg 61%
    05:00 +24°C° 0 mm 1 mps 668 mmHg 59%
    06:00 +24°C° 0 mm 2 mps 669 mmHg 56%
    07:00 +25°C° 0 mm 2 mps 669 mmHg 54%
    08:00 +28°C° 0 mm 3 mps 669 mmHg 45%
    09:00 +30°C° 0 mm 4 mps 670 mmHg 36%
    10:00 +34°C° 0 mm 4 mps 670 mmHg 28%
    11:00 +34°C° 0 mm 4 mps 670 mmHg 25%
    12:00 +35°C° 0 mm 4 mps 669 mmHg 23%
    13:00 +36°C° 0 mm 4 mps 668 mmHg 21%
    14:00 +35°C° 0 mm 3 mps 668 mmHg 22%
    15:00 +35°C° 0 mm 2 mps 668 mmHg 22%
    16:00 +34°C° 0 mm 2 mps 667 mmHg 23%
    17:00 +32°C° 0 mm 2 mps 667 mmHg 25%
    18:00 +31°C° 0 mm 1 mps 668 mmHg 26%
    19:00 +31°C° 0 mm 1 mps 668 mmHg 28%
    20:00 +30°C° 0 mm 1 mps 668 mmHg 30%
    21:00 +29°C° 0 mm 1 mps 668 mmHg 32%
    22:00 +28°C° 0 mm 1 mps 668 mmHg 35%
    23:00 +27°C° 0 mm 1 mps 668 mmHg 35%
    Show more